"Sample Date","Sample Time","Sample Value","Units","Flow Rate","Laser Status","Micron Size 0","Counts/Channel 0","Micron Size 1","Counts/Channel 1","Micron Size 2","Counts/Channel 2","Micron Size 3","Counts/Channel 3","Micron Size 4","Counts/Channel 4","Micron Size 5","Counts/Channel 5","Micron Size 6","Counts/Channel 6","Micron Size 7","Counts/Channel 7","Micron Size 8","Counts/Channel 8","Micron Size 9","Counts/Channel 9","Micron Size 10","Counts/Channel 10","Micron Size 11","Counts/Channel 11","Micron Size 12","Counts/Channel 12","Micron Size 13","Counts/Channel 13","Micron Size 14","Counts/Channel 14","Micron Size 15","Counts/Channel 15","Micron Size 16","Counts/Channel 16","Micron Size 17","Counts/Channel 17","Micron Size 18","Counts/Channel 18","Micron Size 19","Counts/Channel 19","Micron Size 20","Counts/Channel 20","Micron Size 21","Counts/Channel 21","Micron Size 22","Counts/Channel 22","Micron Size 23","Counts/Channel 23","Micron Size 24","Counts/Channel 24","Micron Size 25","Counts/Channel 25","Micron Size 26","Counts/Channel 26","Micron Size 27","Counts/Channel 27","Micron Size 28","Counts/Channel 28","Micron Size 29","Counts/Channel 29","Micron Size 30","Counts/Channel 30","Micron Size 31","Counts/Channel 31"
"05/03/07","04:00:05",83307.000,"cc",28355.604,1,0.100,67243.000,0.200,14382.000,0.300,1627.000,0.500,52.000,1.000,3.000,5.000,0
"05/03/07","04:00:11",82602.000,"cc",28284.766,1,0.100,66787.000,0.200,14126.000,0.300,1638.000,0.500,47.000,1.000,4.000,5.000,0
"05/03/07","04:00:17",82755.000,"cc",28332.693,1,0.100,66768.000,0.200,14337.000,0.300,1605.000,0.500,43.000,1.000,2.000,5.000,0
"05/03/07","04:00:23",82837.000,"cc",28310.365,1,0.100,67227.000,0.200,13963.000,0.300,1594.000,0.500,48.000,1.000,5.000,5.000,0
"05/03/07","04:00:29",82498.000,"cc",28302.285,1,0.100,66790.000,0.200,14106.000,0.300,1543.000,0.500,50.000,1.000,9.000,5.000,0
"05/03/07","04:00:35",82237.000,"cc",28337.695,1,0.100,66557.000,0.200,14093.000,0.300,1535.000,0.500,49.000,1.000,3.000,5.000,0
"05/03/07","04:00:41",82259.000,"cc",28290.098,1,0.100,66707.000,0.200,13944.000,0.300,1554.000,0.500,52.000,1.000,2.000,5.000,0
"05/03/07","04:00:47",81619.000,"cc",28240.018,1,0.100,66301.000,0.200,13765.000,0.300,1495.000,0.500,55.000,1.000,3.000,5.000,0
"05/03/07","04:00:53",82358.000,"cc",28261.992,1,0.100,67273.000,0.200,13575.000,0.300,1454.000,0.500,50.000,1.000,6.000,5.000,0
"05/03/07","04:00:59",81577.000,"cc",28307.301,1,0.100,66306.000,0.200,13713.000,0.300,1516.000,0.500,39.000,1.000,3.000,5.000,0
"05/03/07","04:01:05",82331.000,"cc",28342.934,1,0.100,67292.000,0.200,13565.000,0.300,1427.000,0.500,45.000,1.000,2.000,5.000,0
"05/03/07","04:01:11",82873.000,"cc",28356.793,1,0.100,67854.000,0.200,13489.000,0.300,1475.000,0.500,47.000,1.000,8.000,5.000,0
"05/03/07","04:01:17",84355.000,"cc",28303.451,1,0.100,69428.000,0.200,13435.000,0.300,1445.000,0.500,42.000,1.000,5.000,5.000,0
"05/03/07","04:01:23",86036.000,"cc",28343.680,1,0.100,70799.000,0.200,13709.000,0.300,1474.000,0.500,49.000,1.000,5.000,5.000,0
"05/03/07","04:01:29",87692.000,"cc",28319.283,1,0.100,72245.000,0.200,13951.000,0.300,1457.000,0.500,37.000,1.000,2.000,5.000,0
"05/03/07","04:01:35",87007.000,"cc",28377.035,1,0.100,72132.000,0.200,13408.000,0.300,1415.000,0.500,49.000,1.000,3.000,5.000,0
"05/03/07","04:01:41",87048.000,"cc",28335.869,1,0.100,72095.000,0.200,13383.000,0.300,1513.000,0.500,53.000,1.000,4.000,5.000,0
"05/03/07","04:01:47",87469.000,"cc",28306.705,1,0.100,72453.000,0.200,13564.000,0.300,1412.000,0.500,38.000,1.000,2.000,5.000,0
"05/03/07","04:01:53",87192.000,"cc",28262.479,1,0.100,72172.000,0.200,13613.000,0.300,1346.000,0.500,58.000,1.000,3.000,5.000,0
"05/03/07","04:01:59",87336.000,"cc",28338.082,1,0.100,72330.000,0.200,13492.000,0.300,1459.000,0.500,55.000,1.000,0,5.000,0
"05/03/07","04:02:05",87314.000,"cc",28201.582,1,0.100,72772.000,0.200,13136.000,0.300,1355.000,0.500,46.000,1.000,5.000,5.000,0
"05/03/07","04:02:11",87938.000,"cc",28340.883,1,0.100,73129.000,0.200,13387.000,0.300,1369.000,0.500,48.000,1.000,5.000,5.000,0
"05/03/07","04:02:17",88635.000,"cc",28334.223,1,0.100,73763.000,0.200,13460.000,0.300,1364.000,0.500,42.000,1.000,6.000,5.000,0
"05/03/07","04:02:23",89074.000,"cc",28302.322,1,0.100,74206.000,0.200,13501.000,0.300,1317.000,0.500,49.000,1.000,1.000,5.000,0
"05/03/07","04:02:29",88706.000,"cc",28315.779,1,0.100,74076.000,0.200,13309.000,0.300,1269.000,0.500,48.000,1.000,4.000,5.000,0
"05/03/07","04:02:35",89050.000,"cc",28318.395,1,0.100,74435.000,0.200,13239.000,0.300,1329.000,0.500,43.000,1.000,4.000,5.000,0
"05/03/07","04:02:41",89593.000,"cc",28288.629,1,0.100,74798.000,0.200,13454.000,0.300,1290.000,0.500,48.000,1.000,3.000,5.000,0
"05/03/07","04:02:47",89678.000,"cc",28325.879,1,0.100,74797.000,0.200,13502.000,0.300,1330.000,0.500,46.000,1.000,3.000,5.000,0
"05/03/07","04:02:53",90001.000,"cc",28376.764,1,0.100,75447.000,0.200,13201.000,0.300,1306.000,0.500,41.000,1.000,6.000,5.000,0
"05/03/07","04:02:59",90638.000,"cc",28317.553,1,0.100,76022.000,0.200,13216.000,0.300,1347.000,0.500,53.000,1.000,0,5.000,0
"05/03/07","04:03:05",90978.000,"cc",28289.764,1,0.100,76262.000,0.200,13340.000,0.300,1332.000,0.500,42.000,1.000,2.000,5.000,0
"05/03/07","04:03:11",91828.000,"cc",28355.717,1,0.100,77293.000,0.200,13187.000,0.300,1309.000,0.500,38.000,1.000,1.000,5.000,0
"05/03/07","04:03:17",91699.000,"cc",28328.451,1,0.100,77286.000,0.200,13081.000,0.300,1297.000,0.500,32.000,1.000,3.000,5.000,0
"05/03/07","04:03:23",92825.000,"cc",28317.266,1,0.100,78435.000,0.200,13111.000,0.300,1237.000,0.500,40.000,1.000,2.000,5.000,0
"05/03/07","04:03:29",92163.000,"cc",28311.629,1,0.100,77695.000,0.200,13127.000,0.300,1287.000,0.500,50.000,1.000,4.000,5.000,0
"05/03/07","04:03:35",92366.000,"cc",28320.648,1,0.100,77931.000,0.200,13157.000,0.300,1223.000,0.500,54.000,1.000,1.000,5.000,0
"05/03/07","04:03:41",92457.000,"cc",28330.643,1,0.100,78125.000,0.200,13002.000,0.300,1288.000,0.500,40.000,1.000,2.000,5.000,0
"05/03/07","04:03:47",93807.000,"cc",28307.670,1,0.100,79215.000,0.200,13304.000,0.300,1244.000,0.500,43.000,1.000,1.000,5.000,0
"05/03/07","04:03:53",94398.000,"cc",28278.369,1,0.100,79861.000,0.200,13233.000,0.300,1250.000,0.500,49.000,1.000,5.000,5.000,0
"05/03/07","04:03:59",94496.000,"cc",28298.990,1,0.100,80354.000,0.200,12940.000,0.300,1146.000,0.500,54.000,1.000,2.000,5.000,0
"05/03/07","04:04:05",94101.000,"cc",28305.223,1,0.100,79921.000,0.200,13004.000,0.300,1134.000,0.500,38.000,1.000,4.000,5.000,0
"05/03/07","04:04:11",95295.000,"cc",28291.373,1,0.100,81071.000,0.200,13006.000,0.300,1171.000,0.500,41.000,1.000,6.000,5.000,0
"05/03/07","04:04:17",94330.000,"cc",28341.461,1,0.100,80225.000,0.200,12854.000,0.300,1189.000,0.500,58.000,1.000,4.000,5.000,0
"05/03/07","04:04:23",94077.000,"cc",28359.873,1,0.100,79992.000,0.200,12882.000,0.300,1155.000,0.500,43.000,1.000,5.000,5.000,0
"05/03/07","04:04:29",93864.000,"cc",28326.414,1,0.100,79899.000,0.200,12818.000,0.300,1097.000,0.500,42.000,1.000,8.000,5.000,0
"05/03/07","04:04:35",93347.000,"cc",28287.992,1,0.100,79457.000,0.200,12698.000,0.300,1145.000,0.500,43.000,1.000,4.000,5.000,0
"05/03/07","04:04:41",93895.000,"cc",28330.731,1,0.100,79969.000,0.200,12765.000,0.300,1100.000,0.500,53.000,1.000,8.000,5.000,0
"05/03/07","04:04:47",93309.000,"cc",28304.590,1,0.100,79384.000,0.200,12720.000,0.300,1143.000,0.500,54.000,1.000,8.000,5.000,0
"05/03/07","04:04:53",93565.000,"cc",28303.037,1,0.100,79721.000,0.200,12569.000,0.300,1216.000,0.500,52.000,1.000,7.000,5.000,0
"05/03/07","04:04:59",93922.000,"cc",28333.650,1,0.100,80000.000,0.200,12689.000,0.300,1173.000,0.500,51.000,1.000,9.000,5.000,0
"05/03/07","04:05:05",93740.000,"cc",28362.750,1,0.100,79838.000,0.200,12732.000,0.300,1124.000,0.500,36.000,1.000,10.000,5.000,0
"05/03/07","04:05:11",93551.000,"cc",28284.617,1,0.100,79595.000,0.200,12728.000,0.300,1176.000,0.500,45.000,1.000,7.000,5.000,0
"05/03/07","04:05:17",93379.000,"cc",28314.822,1,0.100,79778.000,0.200,12515.000,0.300,1021.000,0.500,56.000,1.000,9.000,5.000,0
"05/03/07","04:05:23",93366.000,"cc",28330.352,1,0.100,79907.000,0.200,12303.000,0.300,1099.000,0.500,45.000,1.000,12.000,5.000,0
"05/03/07","04:05:29",93796.000,"cc",28306.139,1,0.100,79985.000,0.200,12684.000,0.300,1067.000,0.500,51.000,1.000,9.000,5.000,0
"05/03/07","04:05:35",92697.000,"cc",28319.945,1,0.100,79290.000,0.200,12254.000,0.300,1074.000,0.500,67.000,1.000,12.000,5.000,0
"05/03/07","04:05:41",92281.000,"cc",28288.731,1,0.100,78941.000,0.200,12275.000,0.300,1004.000,0.500,53.000,1.000,8.000,5.000,0
"05/03/07","04:05:47",92783.000,"cc",28309.539,1,0.100,79562.000,0.200,12140.000,0.300,1031.000,0.500,45.000,1.000,5.000,5.000,0
"05/03/07","04:05:53",93312.000,"cc",28327.500,1,0.100,79698.000,0.200,12482.000,0.300,1072.000,0.500,52.000,1.000,8.000,5.000,0
"05/03/07","04:05:59",93145.000,"cc",28381.873,1,0.100,79631.000,0.200,12354.000,0.300,1104.000,0.500,48.000,1.000,8.000,5.000,0
"05/03/07","04:06:05",92205.000,"cc",28324.443,1,0.100,79007.000,0.200,12115.000,0.300,1021.000,0.500,58.000,1.000,4.000,5.000,0
"05/03/07","04:06:11",92680.000,"cc",28282.545,1,0.100,79233.000,0.200,12348.000,0.300,1043.000,0.500,51.000,1.000,5.000,5.000,0
"05/03/07","04:06:17",92590.000,"cc",28300.941,1,0.100,79152.000,0.200,12310.000,0.300,1060.000,0.500,59.000,1.000,9.000,5.000,0
"05/03/07","04:06:23",91601.000,"cc",28306.836,1,0.100,78238.000,0.200,12247.000,0.300,1064.000,0.500,47.000,1.000,5.000,5.000,0
"05/03/07","04:06:29",91856.000,"cc",28289.732,1,0.100,78740.000,0.200,12038.000,0.300,1008.000,0.500,62.000,1.000,8.000,5.000,0
"05/03/07","04:06:35",91809.000,"cc",28313.863,1,0.100,78609.000,0.200,12173.000,0.300,965.000,0.500,54.000,1.000,8.000,5.000,0
"05/03/07","04:06:41",91630.000,"cc",28315.123,1,0.100,78497.000,0.200,12065.000,0.300,1010.000,0.500,46.000,1.000,12.000,5.000,0
"05/03/07","04:06:47",91182.000,"cc",28326.598,1,0.100,77907.000,0.200,12255.000,0.300,967.000,0.500,49.000,1.000,4.000,5.000,0
"05/03/07","04:06:53",90294.000,"cc",28356.205,1,0.100,77420.000,0.200,11824.000,0.300,983.000,0.500,58.000,1.000,9.000,5.000,0
"05/03/07","04:06:59",89750.000,"cc",28329.682,1,0.100,77014.000,0.200,11668.000,0.300,1013.000,0.500,47.000,1.000,8.000,5.000,0
"05/03/07","04:07:05",88679.000,"cc",28279.887,1,0.100,76089.000,0.200,11498.000,0.300,1027.000,0.500,57.000,1.000,8.000,5.000,0
"05/03/07","04:07:11",87664.000,"cc",28325.049,1,0.100,75105.000,0.200,11528.000,0.300,958.000,0.500,66.000,1.000,7.000,5.000,0
"05/03/07","04:07:17",87472.000,"cc",28354.434,1,0.100,74931.000,0.200,11540.000,0.300,939.000,0.500,55.000,1.000,7.000,5.000,0
"05/03/07","04:07:23",87674.000,"cc",28280.965,1,0.100,75239.000,0.200,11407.000,0.300,968.000,0.500,51.000,1.000,9.000,5.000,0
"05/03/07","04:07:29",87114.000,"cc",28305.410,1,0.100,74654.000,0.200,11456.000,0.300,930.000,0.500,62.000,1.000,12.000,5.000,0
"05/03/07","04:07:35",87131.000,"cc",28288.350,1,0.100,74803.000,0.200,11342.000,0.300,933.000,0.500,46.000,1.000,7.000,5.000,0
"05/03/07","04:07:41",85958.000,"cc",28302.465,1,0.100,73537.000,0.200,11434.000,0.300,927.000,0.500,51.000,1.000,9.000,5.000,0
"05/03/07","04:07:47",85820.000,"cc",28289.711,1,0.100,73466.000,0.200,11384.000,0.300,914.000,0.500,50.000,1.000,6.000,5.000,0
"05/03/07","04:07:53",85966.000,"cc",28329.482,1,0.100,73658.000,0.200,11341.000,0.300,904.000,0.500,52.000,1.000,11.000,5.000,0
"05/03/07","04:07:59",85040.000,"cc",28328.760,1,0.100,72687.000,0.200,11364.000,0.300,928.000,0.500,51.000,1.000,10.000,5.000,0
"05/03/07","04:08:05",86050.000,"cc",28309.721,1,0.100,73548.000,0.200,11515.000,0.300,921.000,0.500,53.000,1.000,13.000,5.000,0
"05/03/07","04:08:11",85420.000,"cc",28322.451,1,0.100,73356.000,0.200,11095.000,0.300,916.000,0.500,44.000,1.000,9.000,5.000,0
"05/03/07","04:08:17",85653.000,"cc",28336.986,1,0.100,73497.000,0.200,11202.000,0.300,915.000,0.500,30.000,1.000,9.000,5.000,0
"05/03/07","04:08:23",84724.000,"cc",28316.664,1,0.100,72481.000,0.200,11292.000,0.300,883.000,0.500,61.000,1.000,7.000,5.000,0
"05/03/07","04:08:29",84915.000,"cc",28297.006,1,0.100,72601.000,0.200,11364.000,0.300,893.000,0.500,53.000,1.000,4.000,5.000,0
"05/03/07","04:08:35",83932.000,"cc",28308.553,1,0.100,71723.000,0.200,11270.000,0.300,879.000,0.500,52.000,1.000,8.000,5.000,0
"05/03/07","04:08:41",83997.000,"cc",28290.752,1,0.100,71963.000,0.200,11072.000,0.300,918.000,0.500,39.000,1.000,5.000,5.000,0
"05/03/07","04:08:47",83235.000,"cc",28327.359,1,0.100,71307.000,0.200,10981.000,0.300,890.000,0.500,52.000,1.000,5.000,5.000,0
"05/03/07","04:08:53",82955.000,"cc",28352.107,1,0.100,70933.000,0.200,11083.000,0.300,879.000,0.500,49.000,1.000,11.000,5.000,0
"05/03/07","04:08:59",83844.000,"cc",28366.107,1,0.100,71772.000,0.200,11162.000,0.300,843.000,0.500,53.000,1.000,14.000,5.000,0
"05/03/07","04:09:05",82346.000,"cc",28301.762,1,0.100,70430.000,0.200,11015.000,0.300,853.000,0.500,42.000,1.000,6.000,5.000,0
"05/03/07","04:09:11",81808.000,"cc",28344.525,1,0.100,70192.000,0.200,10679.000,0.300,882.000,0.500,51.000,1.000,4.000,5.000,0
"05/03/07","04:09:17",82223.000,"cc",28307.139,1,0.100,70127.000,0.200,11133.000,0.300,896.000,0.500,56.000,1.000,11.000,5.000,0
"05/03/07","04:09:23",80274.000,"cc",28307.113,1,0.100,68543.000,0.200,10790.000,0.300,878.000,0.500,50.000,1.000,13.000,5.000,0
"05/03/07","04:09:29",80186.000,"cc",28362.147,1,0.100,68355.000,0.200,10941.000,0.300,829.000,0.500,55.000,1.000,6.000,5.000,0
"05/03/07","04:09:35",79195.000,"cc",28306.801,1,0.100,67657.000,0.200,10626.000,0.300,829.000,0.500,71.000,1.000,12.000,5.000,0
"05/03/07","04:09:41",78389.000,"cc",28257.430,1,0.100,67092.000,0.200,10398.000,0.300,817.000,0.500,65.000,1.000,17.000,5.000,0
"05/03/07","04:09:47",78843.000,"cc",28308.920,1,0.100,67260.000,0.200,10652.000,0.300,858.000,0.500,61.000,1.000,12.000,5.000,0
"05/03/07","04:09:53",78516.000,"cc",28302.283,1,0.100,66729.000,0.200,10881.000,0.300,837.000,0.500,56.000,1.000,13.000,5.000,0
"05/03/07","04:09:59",77901.000,"cc",28315.818,1,0.100,66345.000,0.200,10620.000,0.300,866.000,0.500,61.000,1.000,9.000,5.000,0
"05/03/07","04:10:05",77295.000,"cc",28316.572,1,0.100,65690.000,0.200,10638.000,0.300,880.000,0.500,70.000,1.000,17.000,5.000,0
"05/03/07","04:10:11",77431.000,"cc",28270.287,1,0.100,66120.000,0.200,10440.000,0.300,784.000,0.500,67.000,1.000,20.000,5.000,0
"05/03/07","04:10:17",78161.000,"cc",28358.022,1,0.100,66358.000,0.200,10845.000,0.300,886.000,0.500,59.000,1.000,13.000,5.000,0
"05/03/07","04:10:23",76351.000,"cc",28331.637,1,0.100,65026.000,0.200,10361.000,0.300,896.000,0.500,61.000,1.000,7.000,5.000,0
"05/03/07","04:10:29",76925.000,"cc",28296.324,1,0.100,65316.000,0.200,10684.000,0.300,861.000,0.500,50.000,1.000,14.000,5.000,0
"05/03/07","04:10:35",76268.000,"cc",28292.709,1,0.100,64635.000,0.200,10756.000,0.300,794.000,0.500,67.000,1.000,16.000,5.000,0
"05/03/07","04:10:41",76117.000,"cc",28359.232,1,0.100,64517.000,0.200,10736.000,0.300,800.000,0.500,55.000,1.000,9.000,5.000,0
"05/03/07","04:10:47",77076.000,"cc",28268.680,1,0.100,65500.000,0.200,10635.000,0.300,851.000,0.500,80.000,1.000,10.000,5.000,0
"05/03/07","04:10:53",76417.000,"cc",28328.678,1,0.100,64887.000,0.200,10634.000,0.300,832.000,0.500,50.000,1.000,14.000,5.000,0
"05/03/07","04:10:59",76947.000,"cc",28333.531,1,0.100,65202.000,0.200,10820.000,0.300,867.000,0.500,50.000,1.000,8.000,5.000,0
"05/03/07","04:11:05",75956.000,"cc",28341.299,1,0.100,64328.000,0.200,10703.000,0.300,853.000,0.500,55.000,1.000,17.000,5.000,0
"05/03/07","04:11:11",76252.000,"cc",28344.867,1,0.100,64572.000,0.200,10753.000,0.300,855.000,0.500,53.000,1.000,19.000,5.000,0
"05/03/07","04:11:17",75889.000,"cc",28352.240,1,0.100,64315.000,0.200,10636.000,0.300,878.000,0.500,48.000,1.000,12.000,5.000,0
"05/03/07","04:11:23",75816.000,"cc",28288.025,1,0.100,64351.000,0.200,10542.000,0.300,844.000,0.500,60.000,1.000,19.000,5.000,0
"05/03/07","04:11:29",76166.000,"cc",28290.789,1,0.100,64432.000,0.200,10838.000,0.300,825.000,0.500,54.000,1.000,17.000,5.000,0
"05/03/07","04:11:35",75749.000,"cc",28282.680,1,0.100,64202.000,0.200,10637.000,0.300,848.000,0.500,54.000,1.000,8.000,5.000,0
"05/03/07","04:11:41",75080.000,"cc",28292.059,1,0.100,63454.000,0.200,10720.000,0.300,854.000,0.500,41.000,1.000,11.000,5.000,0
"05/03/07","04:11:47",74715.000,"cc",28337.422,1,0.100,63143.000,0.200,10691.000,0.300,814.000,0.500,58.000,1.000,9.000,5.000,0
"05/03/07","04:11:53",73478.000,"cc",28372.779,1,0.100,62264.000,0.200,10346.000,0.300,811.000,0.500,46.000,1.000,11.000,5.000,0
"05/03/07","04:11:59",72230.000,"cc",28356.553,1,0.100,61031.000,0.200,10300.000,0.300,831.000,0.500,55.000,1.000,13.000,5.000,0
"05/03/07","04:12:05",72249.000,"cc",28272.107,1,0.100,61048.000,0.200,10282.000,0.300,854.000,0.500,48.000,1.000,17.000,5.000,0
"05/03/07","04:12:11",71214.000,"cc",28346.541,1,0.100,60146.000,0.200,10139.000,0.300,844.000,0.500,70.000,1.000,15.000,5.000,0
"05/03/07","04:12:17",71898.000,"cc",28320.361,1,0.100,60751.000,0.200,10251.000,0.300,823.000,0.500,58.000,1.000,15.000,5.000,0
"05/03/07","04:12:23",71321.000,"cc",28336.471,1,0.100,60050.000,0.200,10340.000,0.300,846.000,0.500,71.000,1.000,14.000,5.000,0
"05/03/07","04:12:29",70746.000,"cc",28301.832,1,0.100,59725.000,0.200,10109.000,0.300,839.000,0.500,60.000,1.000,13.000,5.000,0
"05/03/07","04:12:35",70506.000,"cc",28312.699,1,0.100,59415.000,0.200,10205.000,0.300,824.000,0.500,52.000,1.000,10.000,5.000,0
"05/03/07","04:12:41",70346.000,"cc",28297.359,1,0.100,59094.000,0.200,10373.000,0.300,803.000,0.500,65.000,1.000,11.000,5.000,0
"05/03/07","04:12:47",70307.000,"cc",28271.400,1,0.100,59195.000,0.200,10293.000,0.300,760.000,0.500,48.000,1.000,11.000,5.000,0
"05/03/07","04:12:53",70061.000,"cc",28313.299,1,0.100,58992.000,0.200,10195.000,0.300,811.000,0.500,51.000,1.000,12.000,5.000,0
"05/03/07","04:12:59",68690.000,"cc",28304.315,1,0.100,57700.000,0.200,10084.000,0.300,822.000,0.500,65.000,1.000,19.000,5.000,0
"05/03/07","04:13:05",67963.000,"cc",28285.527,1,0.100,56946.000,0.200,10097.000,0.300,836.000,0.500,72.000,1.000,12.000,5.000,0
"05/03/07","04:13:11",68923.000,"cc",28318.885,1,0.100,57774.000,0.200,10229.000,0.300,844.000,0.500,66.000,1.000,10.000,5.000,0
"05/03/07","04:13:17",68017.000,"cc",28321.342,1,0.100,57050.000,0.200,10043.000,0.300,841.000,0.500,62.000,1.000,21.000,5.000,0
"05/03/07","04:13:23",67385.000,"cc",28310.772,1,0.100,56471.000,0.200,10015.000,0.300,824.000,0.500,57.000,1.000,18.000,5.000,0
"05/03/07","04:13:29",66849.000,"cc",28374.057,1,0.100,56192.000,0.200,9781.000,0.300,790.000,0.500,65.000,1.000,21.000,5.000,0
"05/03/07","04:13:35",65995.000,"cc",28315.342,1,0.100,55365.000,0.200,9727.000,0.300,805.000,0.500,76.000,1.000,22.000,5.000,0
"05/03/07","04:13:41",65907.000,"cc",28323.857,1,0.100,55229.000,0.200,9736.000,0.300,867.000,0.500,62.000,1.000,13.000,5.000,0
"05/03/07","04:13:47",65920.000,"cc",28337.471,1,0.100,55338.000,0.200,9689.000,0.300,809.000,0.500,67.000,1.000,17.000,5.000,0
"05/03/07","04:13:53",64577.000,"cc",28330.904,1,0.100,54079.000,0.200,9627.000,0.300,783.000,0.500,67.000,1.000,21.000,5.000,0
"05/03/07","04:13:59",64732.000,"cc",28315.459,1,0.100,53905.000,0.200,9914.000,0.300,828.000,0.500,65.000,1.000,20.000,5.000,0
"05/03/07","04:14:05",62254.000,"cc",28323.213,1,0.100,51928.000,0.200,9476.000,0.300,765.000,0.500,69.000,1.000,16.000,5.000,0
"05/03/07","04:14:11",62278.000,"cc",28322.420,1,0.100,52019.000,0.200,9413.000,0.300,768.000,0.500,62.000,1.000,16.000,5.000,0
"05/03/07","04:14:17",62518.000,"cc",28300.428,1,0.100,52196.000,0.200,9402.000,0.300,823.000,0.500,71.000,1.000,26.000,5.000,0
"05/03/07","04:14:23",62596.000,"cc",28390.766,1,0.100,52108.000,0.200,9580.000,0.300,822.000,0.500,71.000,1.000,15.000,5.000,0
"05/03/07","04:14:29",61685.000,"cc",28275.281,1,0.100,51487.000,0.200,9334.000,0.300,786.000,0.500,67.000,1.000,11.000,5.000,0
"05/03/07","04:14:35",61916.000,"cc",28297.344,1,0.100,51737.000,0.200,9339.000,0.300,747.000,0.500,69.000,1.000,24.000,5.000,0
"05/03/07","04:14:41",62360.000,"cc",28324.311,1,0.100,51903.000,0.200,9607.000,0.300,779.000,0.500,59.000,1.000,12.000,5.000,0
"05/03/07","04:14:47",61831.000,"cc",28316.709,1,0.100,51644.000,0.200,9281.000,0.300,830.000,0.500,68.000,1.000,8.000,5.000,0
"05/03/07","04:14:53",61005.000,"cc",28323.363,1,0.100,50800.000,0.200,9322.000,0.300,790.000,0.500,69.000,1.000,24.000,5.000,0
"05/03/07","04:14:59",60458.000,"cc",28371.572,1,0.100,50309.000,0.200,9335.000,0.300,742.000,0.500,53.000,1.000,19.000,5.000,0
"05/03/07","04:15:05",60173.000,"cc",28265.035,1,0.100,50072.000,0.200,9206.000,0.300,819.000,0.500,60.000,1.000,16.000,5.000,0
"05/03/07","04:15:11",60613.000,"cc",28316.471,1,0.100,50377.000,0.200,9374.000,0.300,787.000,0.500,60.000,1.000,15.000,5.000,0
"05/03/07","04:15:17",59886.000,"cc",28311.172,1,0.100,49642.000,0.200,9335.000,0.300,832.000,0.500,62.000,1.000,15.000,5.000,0
"05/03/07","04:15:23",59502.000,"cc",28339.691,1,0.100,49239.000,0.200,9338.000,0.300,840.000,0.500,60.000,1.000,25.000,5.000,0
"05/03/07","04:15:29",59138.000,"cc",28323.697,1,0.100,48973.000,0.200,9220.000,0.300,845.000,0.500,78.000,1.000,22.000,5.000,0
"05/03/07","04:15:35",59207.000,"cc",28282.428,1,0.100,49221.000,0.200,9071.000,0.300,827.000,0.500,68.000,1.000,20.000,5.000,0
"05/03/07","04:15:41",59514.000,"cc",28265.008,1,0.100,49391.000,0.200,9281.000,0.300,765.000,0.500,57.000,1.000,20.000,5.000,0
"05/03/07","04:15:47",57900.000,"cc",28368.969,1,0.100,47832.000,0.200,9158.000,0.300,827.000,0.500,61.000,1.000,22.000,5.000,0
"05/03/07","04:15:53",57506.000,"cc",28313.482,1,0.100,47568.000,0.200,9070.000,0.300,769.000,0.500,84.000,1.000,15.000,5.000,0
"05/03/07","04:15:59",58143.000,"cc",28319.305,1,0.100,48200.000,0.200,9048.000,0.300,814.000,0.500,60.000,1.000,21.000,5.000,0
"05/03/07","04:16:05",57523.000,"cc",28242.133,1,0.100,47615.000,0.200,9024.000,0.300,809.000,0.500,65.000,1.000,10.000,5.000,0
"05/03/07","04:16:11",57063.000,"cc",28338.641,1,0.100,47038.000,0.200,9093.000,0.300,848.000,0.500,63.000,1.000,21.000,5.000,0
"05/03/07","04:16:17",55974.000,"cc",28302.186,1,0.100,46336.000,0.200,8743.000,0.300,791.000,0.500,82.000,1.000,22.000,5.000,0
"05/03/07","04:16:23",55683.000,"cc",28369.695,1,0.100,45921.000,0.200,8867.000,0.300,798.000,0.500,78.000,1.000,19.000,5.000,0
"05/03/07","04:16:29",55947.000,"cc",28305.365,1,0.100,46131.000,0.200,8924.000,0.300,788.000,0.500,91.000,1.000,13.000,5.000,0
"05/03/07","04:16:35",55214.000,"cc",28344.652,1,0.100,45708.000,0.200,8642.000,0.300,766.000,0.500,78.000,1.000,20.000,5.000,0
"05/03/07","04:16:41",55419.000,"cc",28312.324,1,0.100,45990.000,0.200,8544.000,0.300,801.000,0.500,66.000,1.000,18.000,5.000,0
"05/03/07","04:16:47",55630.000,"cc",28298.141,1,0.100,45937.000,0.200,8817.000,0.300,795.000,0.500,56.000,1.000,25.000,5.000,0
"05/03/07","04:16:53",54451.000,"cc",28323.863,1,0.100,44863.000,0.200,8627.000,0.300,863.000,0.500,73.000,1.000,25.000,5.000,0
"05/03/07","04:16:59",53888.000,"cc",28321.754,1,0.100,44246.000,0.200,8771.000,0.300,783.000,0.500,72.000,1.000,16.000,5.000,0
"05/03/07","04:17:05",54261.000,"cc",28318.504,1,0.100,44730.000,0.200,8647.000,0.300,793.000,0.500,70.000,1.000,21.000,5.000,0
"05/03/07","04:17:11",52891.000,"cc",28327.949,1,0.100,43646.000,0.200,8306.000,0.300,844.000,0.500,66.000,1.000,29.000,5.000,0
"05/03/07","04:17:17",53409.000,"cc",28336.805,1,0.100,44203.000,0.200,8334.000,0.300,795.000,0.500,61.000,1.000,16.000,5.000,0
"05/03/07","04:17:23",52257.000,"cc",28313.686,1,0.100,43119.000,0.200,8238.000,0.300,791.000,0.500,90.000,1.000,19.000,5.000,0
"05/03/07","04:17:29",52351.000,"cc",28302.232,1,0.100,43069.000,0.200,8367.000,0.300,813.000,0.500,80.000,1.000,22.000,5.000,0